Location: *
(45.9500°N, 9.0833°E)
Time: 18:30:16
(UTC+00:00)

Cosmos 1486 Rocket - Pass Details

Date: 03 March 2021
Orbit: 758 x 784 km, 74.1° (Epoch: 15 April)

Event Time Altitude Azimuth Distance (km) Brightness Sun altitude
Rises 17:52:17 0° 339° (NNW) 3,255 7.5 -7.6°
Reaches altitude 10° 17:54:40 10° 340° (NNW) 2,328 6.8 -8.0°
Maximum altitude 17:59:58 80° 67° (ENE) 794 4.0 -8.9°
Drops below altitude 10° 18:05:17 10° 156° (SSE) 2,328 6.3 -9.9°
Sets 18:07:40 0° 157° (SSE) 3,254 7.0 -10.3°
